Location: Unspecified
(39.0670°S, 0.0000°E)
Time: 02:45:09
(UTC+00:00)

Envisat - Pass Details

Date: 26 June 2019
Orbit: 764 x 766 km, 98.1° (Epoch: 23 July)

Event Time Altitude Azimuth Distance (km) Brightness Sun altitude
Rises 05:03:54 0° 58° (ENE) 3,232 7.3 -25.5°
Reaches altitude 10° 05:06:58 10° 78° (ENE) 2,316 6.5 -25.0°
Maximum altitude 05:10:09 17° 117° (ESE) 1,887 5.6 -24.3°
Drops below altitude 10° 05:13:21 10° 156° (SSE) 2,334 5.6 -23.7°
Sets 05:16:26 0° 175° (S) 3,270 6.2 -23.1°
